Flag for Canada Weather past 2 weeks in Niagara Falls, Ontario, Canada

Now
54 °F

Clear.


Feels Like: 51 °F
Forecast: 56 / 72 °F
Wind: 9 mph from Northwest

Location: Niagara Falls International Airport

Current Time: Jul 29, 2014 at 3:44:00 AM

Latest Report: Jul 29, 2014 at 2:53 AM


Visibility: 10 mi

Pressure: 29.87 "Hg

Humidity: 90%

Dew point: 51 °F

Location of Niagara FallsLocation

Historic Weather in Niagara Falls — Graph

°F

Niagara Falls temperature yesterday

Maximum temperature yesterday: 68 °F (at 3:53 PM)
Minimum temperature yesterday: 58 °F (at 11:53 PM)
Average temperature yesterday: 63 °F

Past Weeks' High & Low Weather Summary

 TemperatureHumidityPressure
High83 °F (Jul 22, 6:53 PM)97% (Jul 28, 3:53 AM)30.24 "Hg (Jul 28, 3:53 AM)
Low52 °F (Jul 18, 5:53 AM)33% (Jul 18, 4:53 PM)29.56 "Hg (Jul 27, 8:53 PM)
Average68 °F73%29.94 "Hg
* Reported Jul 14 1:55 AM — Jul 29 1:53 AM, Niagara Falls, Weather by CustomWeather, © 2014

Note: Actual official high and low records may vary slightly from our data, if they occured in-between our weather recording intervals... More about our weather records

Advertising

Niagara Falls weather history for previous 24 hours

 ConditionsComfort  
Time TempWeatherWind HumidityBarometerVisibility
1:53 AM
Jul 29
54 °FClear.8 mph86%29.88 "Hg10 mi
12:53 AM57 °FClear.9 mph78%29.87 "Hg10 mi
11:53 PM
Jul 28
58 °FClear.10 mph78%29.87 "Hg10 mi
10:53 PM59 °FPassing clouds.9 mph75%29.87 "Hg10 mi
9:53 PM59 °FPassing clouds.12 mph72%29.87 "Hg10 mi
8:53 PM60 °FPartly sunny.14 mph67%29.85 "Hg10 mi
7:53 PM63 °FPartly sunny.20 mph63%29.83 "Hg10 mi
6:53 PM65 °FBroken clouds.16 mph63%29.81 "Hg10 mi
5:53 PM68 °FBroken clouds.14 mph61%29.79 "Hg10 mi
4:53 PM67 °FPartly sunny.16 mph63%29.77 "Hg10 mi
3:53 PM68 °FBroken clouds.16 mph63%29.75 "Hg10 mi
2:53 PM64 °FPartly sunny.9 mph81%29.75 "Hg10 mi
1:53 PM60 °FMore clouds than sun.10 mph90%29.74 "Hg10 mi
12:53 PM59 °FLight rain. Fog.10 mph90%29.73 "Hg6 mi
11:53 AM59 °FLight rain. Fog.16 mph90%29.72 "Hg5 mi
10:59 AM60 °FLight rain. Fog.17 mph90%29.69 "Hg2 mi
9:53 AM61 °FMostly cloudy.18 mph90%29.65 "Hg10 mi
8:53 AM62 °FLight rain. Mostly cloudy.16 mph93%29.62 "Hg7 mi
7:53 AM63 °FLight rain. Fog.16 mph90%29.59 "Hg5 mi
7:00 AM63 °FLight rain. Fog.14 mph93%29.59 "Hg4 mi
6:01 AM63 °FHeavy rain. Fog.13 mph93%29.57 "Hg1 mi
5:01 AM64 °FLight rain. Mostly cloudy.7 mph94%29.57 "Hg9 mi
3:53 AM64 °FLight rain. Fog.8 mph97%29.56 "Hg4 mi
Weather by CustomWeather, © 2014

See weather overviewHow to use our weather pages